Simultaneous Nadir Overpasses (SNOs) Predictions

Prediction of SNOs between GOES-15 and METOP-B Satellite Orbit:

Table of predicted SNOs for the next 14.0 days since TLE Epoch: 4/6/2017
Index Date Time (GOES-15) GOES-15 Lat,Lon METOP-B Lat,Lon Distance(km) Time Diff (sec)
1 04/08/2017 06:46:03 0.03,-135.37 -0.76,-138.86 398.36 80
2 04/09/2017 06:28:04 0.03,-135.39 0.36,-133.87 173.07 80
3 04/10/2017 18:46:55 -0.03,-135.41 0.64,-138.43 344.37 80
4 04/11/2017 18:23:36 -0.03,-135.43 -0.48,-133.44 226.55 80
5 04/13/2017 06:42:36 0.03,-135.46 -0.55,-138.04 294.47 80
6 04/14/2017 06:24:36 0.03,-135.47 0.56,-133.05 276.25 80
7 04/15/2017 18:43:28 -0.04,-135.49 0.44,-137.61 242.24 80
8 04/16/2017 18:20:08 -0.04,-135.49 -0.68,-132.62 327.80 80
9 04/18/2017 06:39:08 0.05,-135.51 -0.34,-137.22 194.75 80
10 04/19/2017 06:21:09 0.05,-135.52 0.78,-132.22 375.15 80
11 04/20/2017 18:40:00 -0.06,-135.52 0.23,-136.79 144.32 80




NCC Satellite Simultaneous Nadir Overpasses (SNOs) Prediction Service
